User: anonymous   Login
Location: Falconara Alta
(43.6167°N, 13.4000°E)
Time: 13:32:35
(UTC+00:00)
Language:

Cosmos 489 Rocket - Orbit

View from above orbital plane
View from above orbital plane
View from above satellite
View from above satellite

Ground track
Ground track

The orbit data is extracted from the following two-line orbital elements,

1  6020U 72035B   20191.83411462 +.00000061 +00000-0 +82035-4 0  9996
2  6020 074.0193 205.3226 0021944 283.1286 250.6104 13.78828651423112
Epoch (UTC): 09 July 2020 20:01:07
Eccentricity: 0.0021944
inclination: 74.0193°
perigee height: 952 km
apogee height: 984 km
right ascension of ascending node: 205.3226°
argument of perigee: 283.1286°
revolutions per day: 13.78828651
mean anomaly at epoch: 250.6104°
orbit number at epoch: 42311

The dashed part of the orbit path shows where the satellite is in the earth's shadow,  

DLR